This demonstration page uses our WeatherBlox Daily Observations layout. Learn more.

Left ArrowRight Arrow

44.31136, -96.79839

Hourly Observations for October 7, 2022

Temp ( °F °C ) Dew Point ( °F °C ) Humidity (%) Winds ( mph kmh ) Pressure ( in mb ) Visibility ( mi km ) Precip ( " mm )
12:56 am 00:56 Clear N/A N/A N/A N 6 9 30.59 1036 10 16 0.00 0.00
1:56 am 01:56 Clear N/A N/A N/A NW 3 6 30.59 1036 10 16 0.00 0.00
2:56 am 02:56 Clear N/A N/A N/A Calm N/A 10 16 0.00 0.00
3:56 am 03:56 Clear N/A N/A N/A NW 3 6 30.61 1036 10 16 0.00 0.00
4:56 am 04:56 Cloudy N/A N/A N/A Calm 30.62 1037 10 16 0.00 0.00
5:56 am 05:56 Cloudy N/A N/A N/A NW 6 9 30.63 1037 10 16 0.00 0.00
6:56 am 06:56 Cloudy N/A N/A N/A NNW 3 6 30.64 1038 10 16 0.00 0.00
7:56 am 07:56 Cloudy N/A N/A N/A NNW 5 7 30.65 1038 10 16 0.00 0.00
8:56 am 08:56 Cloudy N/A N/A N/A NNW 5 7 30.66 1038 10 16 0.00 0.00
9:56 am 09:56 Cloudy N/A N/A N/A NNW 9 15 30.66 1038 10 16 0.00 0.00
10:56 am 10:56 Cloudy N/A N/A N/A VRB 3 6 30.66 1038 10 16 0.00 0.00
11:56 am 11:56 Sunny N/A N/A N/A VRB 5 7 30.65 1038 10 16 0.00 0.00
12:56 pm 12:56 Sunny N/A N/A N/A Calm 30.63 1037 10 16 0.00 0.00
1:56 pm 13:56 Sunny N/A N/A N/A VRB 3 6 30.60 1036 10 16 0.00 0.00
2:56 pm 14:56 Sunny N/A N/A N/A NNW 10 17 30.57 1035 10 16 0.00 0.00
3:56 pm 15:56 Sunny N/A N/A N/A NNW 9 15 30.55 1034 10 16 0.00 0.00
4:56 pm 16:56 Sunny N/A N/A N/A NNW 9 15 30.54 1034 10 16 0.00 0.00
5:56 pm 17:56 Sunny N/A N/A N/A WNW 6 9 30.53 1034 10 16 0.00 0.00
6:56 pm 18:56 Sunny N/A N/A N/A W 7 11 N/A 10 16 0.00 0.00
7:56 pm 19:56 Clear N/A N/A N/A W 6 9 30.53 1034 10 16 0.00 0.00
8:56 pm 20:56 Clear N/A N/A N/A W 3 6 30.53 1034 10 16 0.00 0.00
9:56 pm 21:56 Clear N/A N/A N/A WSW 5 7 30.54 1034 10 16 0.00 0.00
10:56 pm 22:56 Clear N/A N/A N/A Calm 30.52 1033 10 16 0.00 0.00
11:56 pm 23:56 Clear N/A N/A N/A Calm 30.51 1033 10 16 0.00 0.00

Powered by AerisWeather